W0WC Weather Reports


Display with metric or nautical units.
time (UTC)temp
F
wind
direction
speed
MPH
gust
MPH
rain 1hr
in
rain 24hr
in
rain mn
in
humidity
%
barometer
mb
20260905131644 84 289 2.0 2.0 0.00 0.00 0.00 61 1016.0
20260905131144 83 84 2.0 3.0 0.00 0.00 0.00 61 1016.0
20260905130638 84 170 4.0 4.0 0.00 0.00 0.00 61 1016.1
20260905130133 83 209 2.0 3.0 0.00 0.00 0.00 61 1016.1
20260905125626 83 220 3.0 3.0 0.00 0.00 0.00 62 1015.9
20260905125122 83 89 2.0 2.0 0.00 0.00 0.00 62 1016.0
20260905124619 82 186 2.0 3.0 0.00 0.00 0.00 62 1015.7
20260905124114 82 14 0.0 0.0 0.00 0.00 0.00 63 1015.8
20260905123609 82 28 0.0 0.0 0.00 0.00 0.00 63 1015.6
20260905123107 81 26 0.0 1.0 0.00 0.00 0.00 64 1015.7
20260905122601 81 22 0.0 1.0 0.00 0.00 0.00 64 1015.6
20260905122100 81 25 0.0 0.0 0.00 0.00 0.00 65 1015.6
20260905121555 80 17 0.0 0.0 0.00 0.00 0.00 66 1015.7
20260905121050 80 26 0.0 1.0 0.00 0.00 0.00 66 1015.5
20260905120549 80 23 0.0 0.0 0.00 0.00 0.00 65 1015.4
20260905120045 81 15 0.0 0.0 0.00 0.00 0.00 65 1015.4
20260905115543 81 70 1.0 1.0 0.00 0.00 0.00 65 1015.4
20260905115039 81 22 1.0 2.0 0.00 0.00 0.00 65 1015.4
20260905114538 81 132 2.0 3.0 0.00 0.00 0.00 65 1015.3
20260905114037 81 302 2.0 2.0 0.00 0.00 0.00 64 1015.3
20260905113532 81 43 0.0 1.0 0.00 0.00 0.00 64 1015.3
20260905113028 81 180 2.0 3.0 0.00 0.00 0.00 64 1015.2
20260905112523 81 324 1.0 1.0 0.00 0.00 0.00 64 1015.3
20260905112018 81 28 0.0 1.0 0.00 0.00 0.00 64 1015.4
20260905111513 81 221 2.0 3.0 0.00 0.00 0.00 63 1015.1
20260905111012 81 77 0.0 1.0 0.00 0.00 0.00 63 1015.2
20260905110511 81 348 1.0 1.0 0.00 0.00 0.00 63 1015.1
20260905110007 82 21 1.0 2.0 0.00 0.00 0.00 63 1015.3
20260905105501 82 256 1.0 1.0 0.00 0.00 0.00 63 1015.2
20260905105000 82 116 1.0 2.0 0.00 0.00 0.00 63 1015.1
20260905104456 82 250 3.0 3.0 0.00 0.00 0.00 62 1015.0
20260905103951 82 283 1.0 1.0 0.00 0.00 0.00 62 1015.0
20260905103446 82 220 2.0 2.0 0.00 0.00 0.00 62 1015.2
20260905102942 82 349 1.0 1.0 0.00 0.00 0.00 62 1015.2
20260905102438 82 333 1.0 1.0 0.00 0.00 0.00 62 1015.1
20260905101933 82 250 2.0 3.0 0.00 0.00 0.00 61 1015.0
20260905101431 82 276 2.0 2.0 0.00 0.00 0.00 61 1014.9
20260905100927 82 297 1.0 2.0 0.00 0.00 0.00 61 1015.1
20260905100422 82 51 2.0 2.0 0.00 0.00 0.00 61 1015.2
20260905095921 83 27 1.0 1.0 0.00 0.00 0.00 61 1015.2
20260905095416 83 224 3.0 3.0 0.00 0.00 0.00 60 1015.0
20260905094910 83 59 2.0 2.0 0.00 0.00 0.00 60 1014.9
20260905094406 83 181 2.0 3.0 0.00 0.00 0.00 60 1015.0
20260905093905 83 29 0.0 1.0 0.00 0.00 0.00 60 1015.0
20260905093401 83 186 3.0 3.0 0.00 0.00 0.00 60 1015.0
20260905092857 83 94 2.0 3.0 0.00 0.00 0.00 60 1014.9
20260905092356 83 41 2.0 2.0 0.00 0.00 0.00 60 1015.0
20260905091851 83 145 4.0 6.0 0.00 0.00 0.00 60 1015.0
20260905091351 83 88 2.0 2.0 0.00 0.00 0.00 60 1014.8
20260905090850 83 330 3.0 3.0 0.00 0.00 0.00 60 1014.9
20260905090346 84 46 1.0 1.0 0.00 0.00 0.00 59 1015.0
20260905085845 84 231 3.0 4.0 0.00 0.00 0.00 59 1014.8
20260905085345 84 86 2.0 3.0 0.00 0.00 0.00 59 1014.8
20260905084841 84 179 2.0 3.0 0.00 0.00 0.00 59 1014.7
20260905084340 84 195 3.0 3.0 0.00 0.00 0.00 59 1014.6
20260905083835 83 135 2.0 2.0 0.00 0.00 0.00 59 1014.6
20260905083331 83 197 1.0 1.0 0.00 0.00 0.00 60 1014.6
20260905082826 83 57 1.0 1.0 0.00 0.00 0.00 60 1014.6
20260905082323 83 74 1.0 2.0 0.00 0.00 0.00 60 1014.7
20260905081823 83 10 3.0 4.0 0.00 0.00 0.00 60 1014.4
20260905081318 84 53 2.0 2.0 0.00 0.00 0.00 60 1014.4
20260905080817 84 25 2.0 3.0 0.00 0.00 0.00 59 1014.5
20260905080312 84 181 2.0 2.0 0.00 0.00 0.00 59 1014.6
20260905075810 84 28 1.0 1.0 0.00 0.00 0.00 58 1014.6
20260905075310 84 18 0.0 0.0 0.00 0.00 0.00 58 1014.5
20260905074809 84 216 3.0 3.0 0.00 0.00 0.00 58 1014.6
20260905074305 85 8 1.0 1.0 0.00 0.00 0.00 57 1014.5
20260905073801 85 178 3.0 3.0 0.00 0.00 0.00 57 1014.6
20260905073256 85 205 2.0 3.0 0.00 0.00 0.00 57 1014.5
20260905072755 85 38 0.0 0.0 0.00 0.00 0.00 57 1014.7
20260905072251 85 5 0.0 1.0 0.00 0.00 0.00 57 1014.8
20260905071747 85 14 1.0 2.0 0.00 0.00 0.00 57 1014.6
20260905071243 85 186 2.0 2.0 0.00 0.00 0.00 57 1014.4
20260905070738 85 176 2.0 2.0 0.00 0.00 0.00 57 1014.9
20260905070234 85 41 1.0 1.0 0.00 0.00 0.00 57 1014.9
20260905065733 85 180 2.0 3.0 0.00 0.00 0.00 57 1015.1
20260905065227 85 35 1.0 2.0 0.00 0.00 0.00 57 1014.8
20260905064722 85 24 0.0 0.0 0.00 0.00 0.00 56 1015.0
20260905064218 85 11 0.0 1.0 0.00 0.00 0.00 56 1014.9
20260905063716 85 51 1.0 1.0 0.00 0.00 0.00 56 1015.0
20260905063213 85 23 1.0 1.0 0.00 0.00 0.00 56 1015.0
20260905062708 85 77 2.0 2.0 0.00 0.00 0.00 55 1014.9
20260905062208 85 29 0.0 0.0 0.00 0.00 0.00 55 1015.1
20260905061702 86 24 0.0 0.0 0.00 0.00 0.00 55 1015.0
20260905061201 85 53 0.0 1.0 0.00 0.00 0.00 55 1015.1
20260905060657 86 54 1.0 2.0 0.00 0.00 0.00 55 1015.1
20260905060154 86 211 2.0 2.0 0.00 0.00 0.00 55 1015.2
20260905055652 86 35 1.0 2.0 0.00 0.00 0.00 55 1015.3
20260905055148 86 242 2.0 2.0 0.00 0.00 0.00 54 1014.9
20260905054643 86 37 2.0 2.0 0.00 0.00 0.00 54 1015.2
20260905054138 86 188 4.0 4.0 0.00 0.00 0.00 54 1015.1
20260905053638 86 178 2.0 4.0 0.00 0.00 0.00 54 1015.0
20260905053133 86 207 2.0 4.0 0.00 0.00 0.00 54 1015.1
20260905052632 86 101 2.0 3.0 0.00 0.00 0.00 53 1015.1
20260905052128 87 176 2.0 2.0 0.00 0.00 0.00 53 1015.0
20260905051623 87 188 2.0 3.0 0.00 0.00 0.00 53 1015.2
20260905051120 87 67 1.0 2.0 0.00 0.00 0.00 52 1015.1
20260905050616 87 95 2.0 2.0 0.00 0.00 0.00 52 1015.1
20260905050112 87 40 1.0 2.0 0.00 0.00 0.00 52 1014.9
20260905045612 87 36 1.0 1.0 0.00 0.00 0.00 51 1015.2
20260905045108 87 159 4.0 4.0 0.00 0.00 0.00 51 1015.0
20260905044607 87 129 3.0 3.0 0.00 0.00 0.00 50 1015.0
20260905044102 87 81 2.0 2.0 0.00 0.00 0.00 50 1015.0
20260905043601 87 28 0.0 1.0 0.00 0.00 0.00 50 1014.9
20260905043057 87 47 2.0 3.0 0.00 0.00 0.00 50 1014.9
20260905042555 87 35 1.0 1.0 0.00 0.00 0.00 49 1015.0
20260905042050 87 41 0.0 1.0 0.00 0.00 0.00 49 1015.0
20260905041546 87 68 1.0 1.0 0.00 0.00 0.00 49 1014.9
20260905041041 88 40 2.0 2.0 0.00 0.00 0.00 49 1015.0
20260905040541 88 21 0.0 0.0 0.00 0.00 0.00 49 1014.9
20260905040039 88 32 1.0 1.0 0.00 0.00 0.00 48 1014.8
20260905035535 88 176 1.0 2.0 0.00 0.00 0.00 49 1015.1
20260905035032 87 24 1.0 1.0 0.00 0.00 0.00 49 1014.9
20260905034527 86 356 1.0 1.0 0.00 0.00 0.00 52 1014.9
20260905034026 86 82 1.0 2.0 0.00 0.00 0.00 52 1014.7
20260905033520 86 45 0.0 1.0 0.00 0.00 0.00 53 1014.9
20260905033017 86 20 0.0 0.0 0.00 0.00 0.00 54 1014.8
20260905032511 86 13 0.0 0.0 0.00 0.00 0.00 53 1014.8
20260905032006 86 14 0.0 0.0 0.00 0.00 0.00 53 1014.9
20260905031502 86 13 0.0 0.0 0.00 0.00 0.00 53 1014.7
20260905030957 87 14 0.0 0.0 0.00 0.00 0.00 52 1014.8
20260905030452 87 20 0.0 0.0 0.00 0.00 0.00 51 1014.5
20260905025951 87 13 0.0 0.0 0.00 0.00 0.00 51 1014.7
20260905025447 87 8 0.0 0.0 0.00 0.00 0.00 51 1014.5
20260905024943 87 4 0.0 0.0 0.00 0.00 0.00 51 1014.5
20260905024443 87 16 0.0 0.0 0.00 0.00 0.00 50 1014.2
20260905023939 88 11 0.0 0.0 0.00 0.00 0.00 50 1014.4
20260905023434 88 9 0.0 0.0 0.00 0.00 0.00 50 1014.4
20260905022933 88 8 0.0 0.0 0.00 0.00 0.00 50 1014.1
20260905022428 87 9 0.0 0.0 0.00 0.00 0.00 50 1014.0
20260905021924 88 17 0.0 0.0 0.00 0.00 0.00 50 1014.0
20260905021423 88 21 0.0 0.0 0.00 0.00 0.00 49 1014.0
20260905020919 88 23 0.0 0.0 0.00 0.00 0.00 50 1013.8
20260905020418 88 18 0.0 0.0 0.00 0.00 0.00 49 1013.9
20260905015918 88 18 0.0 0.0 0.00 0.00 0.00 49 1013.7
20260905015416 89 17 0.0 0.0 0.00 0.00 0.00 49 1013.6
20260905014916 89 17 0.0 0.0 0.00 0.00 0.00 48 1013.4
20260905014412 89 17 0.0 0.0 0.00 0.00 0.00 47 1013.4
20260905013912 90 17 0.0 0.0 0.00 0.00 0.00 46 1013.4
20260905013408 90 13 0.0 0.0 0.00 0.00 0.00 45 1013.5
20260905012903 91 11 0.0 0.0 0.00 0.00 0.00 45 1013.3
20260905012358 91 13 0.0 0.0 0.00 0.00 0.00 44 1013.2
20260905011855 91 12 0.0 0.0 0.00 0.00 0.00 44 1013.3
20260905011350 92 13 0.0 0.0 0.00 0.00 0.00 43 1013.2
20260905010847 92 10 0.0 0.0 0.00 0.00 0.00 42 1013.4
20260905010347 93 6 0.0 0.0 0.00 0.00 0.00 42 1013.4
20260905005843 94 14 0.0 0.0 0.00 0.00 0.00 41 1013.0
20260905005339 94 14 0.0 0.0 0.00 0.00 0.00 40 1013.0
20260905004834 95 10 0.0 0.0 0.00 0.00 0.00 39 1013.2
20260905004328 95 23 0.0 1.0 0.00 0.00 0.00 38 1013.1
20260905003824 96 359 0.0 0.0 0.00 0.00 0.00 38 1013.1
20260905003320 96 343 1.0 1.0 0.00 0.00 0.00 38 1013.2
20260905002815 96 13 0.0 0.0 0.00 0.00 0.00 38 1012.9
20260905002315 97 344 1.0 1.0 0.00 0.00 0.00 37 1013.3
20260905001810 97 162 3.0 4.0 0.00 0.00 0.00 37 1012.9
20260905001309 97 211 2.0 3.0 0.00 0.00 0.00 37 1012.9
20260905000805 98 6 1.0 2.0 0.00 0.00 0.00 36 1012.9
20260905000300 98 20 1.0 1.0 0.00 0.00 0.00 36 1013.1
20260904235755 98 63 2.0 2.0 0.00 0.00 0.00 35 1013.2
20260904235249 98 35 2.0 2.0 0.00 0.00 0.00 35 1013.1
20260904234744 99 104 4.0 4.0 0.00 0.00 0.00 34 1013.2
20260904234240 98 56 2.0 3.0 0.00 0.00 0.00 35 1013.0
20260904233735 99 271 3.0 4.0 0.00 0.00 0.00 36 1013.0
20260904233232 99 172 3.0 3.0 0.00 0.00 0.00 35 1013.1
20260904232728 99 220 2.0 4.0 0.00 0.00 0.00 35 1013.1
20260904232224 100 193 4.0 8.0 0.00 0.00 0.00 34 1013.1
20260904231719 100 71 1.0 1.0 0.00 0.00 0.00 35 1013.0
20260904231215 99 223 4.0 4.0 0.00 0.00 0.00 35 1013.0
20260904230714 100 180 4.0 6.0 0.00 0.00 0.00 34 1013.2
20260904230209 100 184 4.0 4.0 0.00 0.00 0.00 35 1013.3
20260904225708 100 196 2.0 3.0 0.00 0.00 0.00 35 1013.2
20260904225203 100 8 2.0 3.0 0.00 0.00 0.00 35 1012.9
20260904224701 100 210 6.0 10.0 0.00 0.00 0.00 34 1013.1
20260904224157 100 133 4.0 6.0 0.00 0.00 0.00 34 1013.1
20260904223656 100 84 4.0 6.0 0.00 0.00 0.00 34 1013.2
20260904223151 100 42 1.0 2.0 0.00 0.00 0.00 35 1013.2
20260904222647 100 115 4.0 4.0 0.00 0.00 0.00 35 1013.3
20260904222143 99 33 2.0 3.0 0.00 0.00 0.00 35 1013.2
20260904221642 100 41 0.0 1.0 0.00 0.00 0.00 35 1013.0
20260904221137 100 143 5.0 8.0 0.00 0.00 0.00 35 1013.2
20260904220632 99 23 1.0 1.0 0.00 0.00 0.00 36 1013.1
20260904220127 100 104 6.0 8.0 0.00 0.00 0.00 34 1013.4
20260904215622 101 131 6.0 7.0 0.00 0.00 0.00 34 1013.4
20260904215118 100 223 4.0 6.0 0.00 0.00 0.00 34 1013.3
20260904214618 101 30 2.0 4.0 0.00 0.00 0.00 34 1013.4
20260904214113 100 43 2.0 3.0 0.00 0.00 0.00 34 1013.4
20260904213611 100 131 2.0 4.0 0.00 0.00 0.00 35 1013.7
20260904213108 101 117 4.0 8.0 0.00 0.00 0.00 34 1013.7
20260904212607 101 232 3.0 4.0 0.00 0.00 0.00 34 1013.5
20260904212103 100 328 1.0 2.0 0.00 0.00 0.00 34 1013.3
20260904211602 100 67 2.0 2.0 0.00 0.00 0.00 35 1013.6
20260904211058 100 105 4.0 4.0 0.00 0.00 0.00 35 1013.6
20260904210557 100 183 4.0 7.0 0.00 0.00 0.00 35 1013.7
20260904210053 100 28 2.0 2.0 0.00 0.00 0.00 36 1013.6
20260904205548 101 16 0.0 1.0 0.00 0.00 0.00 35 1014.0
20260904205045 101 124 3.0 4.0 0.00 0.00 0.00 35 1013.8
20260904204541 101 190 3.0 3.0 0.00 0.00 0.00 35 1014.0
20260904204036 101 133 6.0 8.0 0.00 0.00 0.00 33 1014.0
20260904203532 101 182 4.0 4.0 0.00 0.00 0.00 34 1014.0
20260904203028 101 239 6.0 8.0 0.00 0.00 0.00 35 1013.9
20260904202524 101 192 5.0 7.0 0.00 0.00 0.00 35 1014.1
20260904202020 100 13 1.0 2.0 0.00 0.00 0.00 35 1014.1
20260904201515 99 340 3.0 3.0 0.00 0.00 0.00 36 1014.1
20260904201010 100 232 6.0 7.0 0.00 0.00 0.00 36 1014.4
20260904200509 101 176 5.0 7.0 0.00 0.00 0.00 34 1014.5
20260904200004 99 8 3.0 3.0 0.00 0.00 0.00 37 1014.5
20260904195502 99 154 4.0 4.0 0.00 0.00 0.00 37 1014.5
20260904195001 99 184 5.0 8.0 0.00 0.00 0.00 36 1014.6
20260904194457 100 259 5.0 7.0 0.00 0.00 0.00 36 1014.6
20260904193951 100 173 3.0 3.0 0.00 0.00 0.00 36 1014.6
20260904193447 100 336 3.0 4.0 0.00 0.00 0.00 36 1014.7
20260904192942 99 214 3.0 4.0 0.00 0.00 0.00 37 1014.9
20260904192437 98 204 5.0 7.0 0.00 0.00 0.00 38 1014.7
20260904191933 98 185 6.0 7.0 0.00 0.00 0.00 38 1014.9
20260904191430 97 248 6.0 8.0 0.00 0.00 0.00 40 1014.9
20260904190926 97 103 7.0 8.0 0.00 0.00 0.00 40 1015.0
20260904190426 96 160 7.0 9.0 0.00 0.00 0.00 40 1015.0
20260904185923 96 160 2.0 3.0 0.00 0.00 0.00 41 1015.3
20260904185419 97 72 3.0 4.0 0.00 0.00 0.00 41 1015.3
20260904184918 97 294 3.0 3.0 0.00 0.00 0.00 41 1015.2
20260904184413 97 108 8.0 9.0 0.00 0.00 0.00 41 1015.3
20260904183908 97 223 5.0 6.0 0.00 0.00 0.00 42 1015.4
20260904183403 97 134 3.0 4.0 0.00 0.00 0.00 41 1015.5
20260904182900 97 155 4.0 6.0 0.00 0.00 0.00 39 1015.6
20260904182400 97 164 6.0 7.0 0.00 0.00 0.00 41 1015.7
20260904181855 96 346 3.0 4.0 0.00 0.00 0.00 41 1015.6
20260904181349 96 222 2.0 4.0 0.00 0.00 0.00 42 1015.6
20260904180845 96 4 1.0 2.0 0.00 0.00 0.00 43 1015.6
20260904180335 95 91 4.0 6.0 0.00 0.00 0.00 45 1015.9
20260904175834 95 113 4.0 6.0 0.00 0.00 0.00 45 1016.0
20260904175334 96 144 5.0 10.0 0.00 0.00 0.00 44 1016.0
20260904174827 96 150 4.0 4.0 0.00 0.00 0.00 43 1016.1
20260904174323 95 197 3.0 3.0 0.00 0.00 0.00 44 1016.0
20260904173818 94 96 3.0 3.0 0.00 0.00 0.00 45 1016.0
20260904173313 95 209 7.0 8.0 0.00 0.00 0.00 44 1016.3
20260904172810 95 237 4.0 6.0 0.00 0.00 0.00 44 1016.4
20260904172308 95 115 3.0 4.0 0.00 0.00 0.00 45 1016.3
20260904171804 95 166 5.0 7.0 0.00 0.00 0.00 43 1016.5
20260904171259 95 151 4.0 6.0 0.00 0.00 0.00 44 1016.4
20260904170756 94 130 4.0 6.0 0.00 0.00 0.00 45 1016.4
20260904170251 95 114 5.0 7.0 0.00 0.00 0.00 45 1016.5
20260904165750 94 319 3.0 4.0 0.00 0.00 0.00 46 1016.5
20260904165244 93 141 8.0 11.0 0.00 0.00 0.00 46 1016.6
20260904164744 93 229 5.0 6.0 0.00 0.00 0.00 47 1016.5
20260904164239 93 171 4.0 7.0 0.00 0.00 0.00 48 1016.8
20260904163735 93 83 4.0 4.0 0.00 0.00 0.00 47 1016.8
20260904163230 93 269 5.0 6.0 0.00 0.00 0.00 49 1016.7
20260904162729 93 21 2.0 2.0 0.00 0.00 0.00 49 1016.7
20260904162225 91 111 3.0 4.0 0.00 0.00 0.00 50 1016.8
20260904161720 91 188 7.0 9.0 0.00 0.00 0.00 50 1016.7
20260904161215 91 223 6.0 8.0 0.00 0.00 0.00 51 1016.7
20260904160711 92 188 2.0 4.0 0.00 0.00 0.00 51 1016.9
20260904160206 92 178 4.0 6.0 0.00 0.00 0.00 49 1016.9
20260904155701 90 56 1.0 2.0 0.00 0.00 0.00 53 1016.7
20260904155200 91 152 4.0 4.0 0.00 0.00 0.00 53 1016.8
20260904154659 90 165 6.0 6.0 0.00 0.00 0.00 54 1016.7
20260904154159 91 88 2.0 3.0 0.00 0.00 0.00 53 1016.9
20260904153654 91 113 4.0 4.0 0.00 0.00 0.00 55 1016.8
20260904153149 90 298 3.0 4.0 0.00 0.00 0.00 55 1017.0
20260904152646 90 182 5.0 8.0 0.00 0.00 0.00 56 1016.9
20260904152142 89 150 3.0 3.0 0.00 0.00 0.00 57 1016.9
20260904151641 88 199 3.0 6.0 0.00 0.00 0.00 57 1016.8
20260904151140 88 167 3.0 3.0 0.00 0.00 0.00 58 1016.9
20260904150636 88 161 5.0 6.0 0.00 0.00 0.00 59 1016.9
20260904150132 88 178 7.0 9.0 0.00 0.00 0.00 58 1017.0
20260904145630 87 171 3.0 3.0 0.00 0.00 0.00 60 1016.7
20260904145125 87 271 3.0 4.0 0.00 0.00 0.00 60 1016.8
20260904144621 88 160 3.0 4.0 0.00 0.00 0.00 59 1016.9
20260904144116 87 299 2.0 2.0 0.00 0.00 0.00 60 1016.9
20260904143612 87 130 4.0 4.0 0.00 0.00 0.00 60 1016.7
20260904143108 87 237 3.0 4.0 0.00 0.00 0.00 60 1016.9
20260904142605 86 153 2.0 2.0 0.00 0.00 0.00 62 1016.8
20260904142105 86 163 4.0 6.0 0.00 0.00 0.00 62 1017.0
20260904141601 85 303 1.0 2.0 0.00 0.00 0.00 63 1016.8
20260904141056 85 32 2.0 2.0 0.00 0.00 0.00 63 1016.9
20260904140551 84 236 2.0 2.0 0.00 0.00 0.00 64 1016.9
20260904140045 84 128 4.0 4.0 0.00 0.00 0.00 65 1017.0
20260904135544 84 39 2.0 2.0 0.00 0.00 0.00 64 1016.8
20260904135041 84 97 2.0 2.0 0.00 0.00 0.00 64 1016.8
20260904134537 84 131 2.0 2.0 0.00 0.00 0.00 63 1016.8
20260904134030 83 170 2.0 3.0 0.00 0.00 0.00 63 1016.7
20260904133526 82 31 0.0 1.0 0.00 0.00 0.00 65 1016.9
20260904133022 82 231 2.0 2.0 0.00 0.00 0.00 65 1016.8
20260904132521 81 44 0.0 1.0 0.00 0.00 0.00 66 1016.6
20260904132022 81 60 2.0 3.0 0.00 0.00 0.00 66 1016.5